Regional Weather Roundup
Issued by NWS Grand Forks, ND

Home | Current Version | Previous Version | Text Only | Print | Product List | Glossary Off
Versions: 1 2 3 4 5 6 7 8 9 10 11 12 13 14 15 16 17 18 19 20 21 22 23 24 25 26 27 28 29 30 31 32 33 34 35 36 37 38 39 40 41 42 43 44 45 46 47 48 49 50

000
ASUS43 KFGF 251231
RWRFGF
PRAIRIE TO PINES  WEATHER ROUNDUP
NATIONAL WEATHER SERVICE EASTERN NORTH DAKOTA/GRAND FORKS ND
700 AM CDT TUE APR 25 2017

 **SATELLITE DATA USED TO AUGMENT SKY COVER AT AUTOMATED STATIONS**
 *****  WEATHER ACROSS EASTERN NORTH DAKOTA  *****

CITY           SKY/WX    TMP DP  RH WIND       PRES   REMARKS
GRAND FORKS    CLOUDY    32  29  88 N21       29.77R WCI  20
6HR MIN TEMP:  32; 6HR MAX TEMP:  34;

GRAND FRKS AFB CLOUDY    30  28  93 N22G28    29.79R WCI  17
DEVILS LAKE    CLOUDY    28  25  86 NE24G30   29.83R WCI  14
6HR MIN TEMP:  28; 6HR MAX TEMP:  30;

FARGO          CLOUDY    33  31  92 N22G29    29.69R WCI  21
WAHPETON ARPT  CLOUDY    32  30  93 N23       29.67R WCI  19
$$

 ***** WEATHER ACROSS CENTRAL AND WESTERN NORTH DAKOTA  *****

CITY           SKY/WX    TMP DP  RH WIND       PRES   REMARKS
BISMARCK       CLOUDY    31  27  85 N17       29.81R WCI  19
6HR MIN TEMP:  30; 6HR MAX TEMP:  34;

MINOT          CLOUDY    30  23  75 N17       29.87R WCI  18
6HR MIN TEMP:  30; 6HR MAX TEMP:  32;

JAMESTOWN      CLOUDY    29  27  92 N21G31    29.74R WCI  16
6HR MIN TEMP:  29; 6HR MAX TEMP:  32;

MINOT AFB      CLOUDY    28  21  74 NE18      29.88R WCI  16
GARRISON         N/A     28  23  81 NE10G23   29.83R WCI  19
WILLISTON      CLOUDY    30  22  72 NE12      29.89R WCI  20
6HR MIN TEMP:  30; 6HR MAX TEMP:  32;

DICKINSON      CLOUDY    27  24  89 NE16      29.76R WCI  15
6HR MIN TEMP:  27; 6HR MAX TEMP:  29; 6HR PCP: TRACE;

HETTINGER      CLOUDY    28  26  92 NE14      29.75R WCI  17
6HR MIN TEMP:  28; 6HR MAX TEMP:  30; 6HR PCP: TRACE;

$$

 *****  OTHER AIRPORT OBSERVATIONS IN OUR AREA  *****

CITY           SKY/WX    TMP DP  RH WIND       PRES   REMARKS
WALHALLA       NOT AVBL
GRAFTON AIRPOR CLOUDY    30  28  93 N17       29.83R WCI  18
VALLEY CITY AR LGT SNOW  28  28 100 N22G29    29.75R WCI  15
CANDO          NOT AVBL
CAVALIER APRT  CLOUDY    30  27  86 N15G25    29.83R WCI  19
GWINNER        CLOUDY    32  32 100 MISG      29.69S FOG
SHEYENNE NWR     N/A     31  30  95 N10       29.95  WCI  22
ROLLA          CLOUDY    27  25  93 N23       29.87R WCI  12
 ***** THE ABOVE OBSERVATIONS ARE NON NWS ARE NOT QUALITY
       CONTROLLED AND MAY MIS-REPORT RAIN FOR SNOW...
$$

  *****  WEATHER ACROSS NORTHERN MINNESOTA  *****

CITY           SKY/WX    TMP DP  RH WIND       PRES   REMARKS
FLAG ISLAND    CLOUDY    30  27  86 NE21      29.77R WCI  17
WARROAD        CLOUDY    30  27  86 N17G24    29.76R WCI  18
ROSEAU         CLOUDY    30  27  86 N17       29.75S WCI  18
HALLOCK        CLOUDY    30  27  86 N17       29.80R WCI  18
THF RVR FALLS  CLOUDY    30  29  96 N20G25    29.71R WCI  17
6HR MIN TEMP:  30; 6HR MAX TEMP:  33;

BAUDETTE       CLOUDY    32  29  88 N12       29.71R WCI  23
6HR MIN TEMP:  32; 6HR MAX TEMP:  33; 6HR PCP: TRACE;

WASKISH        CLOUDY    34  32  93 N12       29.68R
CROOKSTON      CLOUDY    32  30  93 N14       29.76R WCI  22
STEPHEN NDAWN    N/A     30  28  93 N16         N/A  WCI  19
GREENBUSH NDAW   N/A     28  28 100 N16         N/A  WCI  17
$$
  *****  WEATHER ACROSS CENTRAL AND WEST MINNESOTA  *****

CITY           SKY/WX    TMP DP  RH WIND       PRES   REMARKS
FOSSTON        CLOUDY    30  30 100 N14       29.68R FOG     WCI  20
BEMIDJI        CLOUDY    35  35  99 N14       29.64R FOG
PARK RAPIDS    CLOUDY    40  36  86 N15G24    29.58F
6HR MIN TEMP:  40; 6HR MAX TEMP:  45;

ELBOW LAKE     CLOUDY    36  36 100 NW15G22   29.60R FOG
6HR MIN TEMP:  35; 6HR MAX TEMP:  38;

WADENA         CLOUDY    39  39 100 N14G21    29.57R
DETROIT LAKES  FOG       36  36 100 N14       29.63R VSB 3/4
MOORHEAD       CLOUDY    32  30  93 N22       29.69R FOG     WCI  19
FERGUS FALLS   CLOUDY    36  36 100 N14       29.63R FOG
MORRIS MN      CLOUDY    36  34  93 NW18G31   29.58R
STAPLES        CLOUDY    39  37  93 N12G18    29.55F
$$
  *****  WEATHER ELSEWHERE ACROSS MINNESOTA  *****

CITY           SKY/WX    TMP DP  RH WIND       PRES   REMARKS
DULUTH         CLOUDY    42  38  85 E7        29.56F
6HR MIN TEMP:  39; 6HR MAX TEMP:  42; 6HR PCP:  0.01;

INTRNTL FALLS  CLOUDY    34  32  92 N8        29.68R
6HR MIN TEMP:  35; 6HR MAX TEMP:  36; 6HR PCP:  0.04;

ELY            LGT RAIN  39  39 100 CALM      29.59S
CLOQUET        CLOUDY    39  36  87 E7        29.56R
WHEATON        CLOUDY    34  32  93 NW21G29   29.66R FOG     WCI  22
BRAINERD       CLOUDY    42  38  85 N13       29.55R
6HR MIN TEMP:  41; 6HR MAX TEMP:  44; 6HR PCP:  0.01;

HIBBING        CLOUDY    39  39 100 N6        29.58R
6HR MIN TEMP:  36; 6HR MAX TEMP:  39; 6HR PCP:  0.01;

ALEXANDRIA     FOG       40  40 100 N10       29.55S VSB 1/4
6HR MIN TEMP:  40; 6HR MAX TEMP:  44;

SAINT CLOUD    FAIR      46  43  89 N5        29.49S
6HR MIN TEMP:  45; 6HR MAX TEMP:  57; 6HR PCP: TRACE;

MINNEAPOLIS    MOCLDY    57  38  48 SE6       29.49S
6HR MIN TEMP:  57; 6HR MAX TEMP:  62;

$$

  *****  WEATHER ACROSS SOUTH DAKOTA  *****

CITY           SKY/WX    TMP DP  RH WIND       PRES   REMARKS
SIOUX FALLS    CLOUDY    41  39  93 N12       29.55F
6HR MIN TEMP:  40; 6HR MAX TEMP:  44;

BROOKINGS      CLOUDY    36  35  96 N15G21    29.57S
WATERTOWN      CLOUDY    33  32  96 N22G29    29.58F WCI  21
6HR MIN TEMP:  33; 6HR MAX TEMP:  38;

HURON          CLOUDY    35  33  92 N21G28    29.63S WCI  24
6HR MIN TEMP:  35; 6HR MAX TEMP:  39;

SISSETON         N/A     33  32  96 N20G28    29.65R WCI  21
ABERDEEN       CLOUDY    33  28  81 N21       29.68S WCI  21
6HR MIN TEMP:  33; 6HR MAX TEMP:  35;

MITCHELL       CLOUDY    37  35  92 N18G28    29.62S
PIERRE         CLOUDY    34  31  88 N14       29.68R WCI  25
6HR MIN TEMP:  34; 6HR MAX TEMP:  39;

MOBRIDGE       CLOUDY    34  27  75 N15       29.69R WCI  24
RAPID CITY     LGT SNOW  31  30  96 NE12      29.67R VSB 3/4 WCI  22
6HR MIN TEMP:  32; 6HR MAX TEMP:  39; 6HR PCP:  0.14;

$$

  *****  SOME WEATHER IN NEARBY STATES *****

CITY           SKY/WX    TMP DP  RH WIND       PRES   REMARKS
GLASGOW MT     CLOUDY    30  24  78 E12       29.88R WCI  20
6HR MIN TEMP:  30; 6HR MAX TEMP:  30;

GREAT FALLS MT CLOUDY    40  38  93 N5        29.75R
6HR MIN TEMP:  40; 6HR MAX TEMP:  42; 6HR PCP: TRACE;

CHEYENNE WY    FAIR      36  29  75 SW10      29.55F
6HR MIN TEMP:  35; 6HR MAX TEMP:  41; 6HR PCP:  0.01;

SCOTTSBLUFF NE FAIR      46  41  82 SE6       29.54S
6HR MIN TEMP:  45; 6HR MAX TEMP:  48; 6HR PCP:  0.40;

OMAHA NE       CLOUDY    50  41  71 N8        29.51F
6HR MIN TEMP:  50; 6HR MAX TEMP:  62;

DES MOINES IA  MOCLDY    57  41  55 S6        29.54R
6HR MIN TEMP:  56; 6HR MAX TEMP:  63;

DAVENPORT IA   FAIR      56  38  50 S12       29.62S
6HR MIN TEMP:  53; 6HR MAX TEMP:  57;

CHICAGO IL     PTSUNNY   57  49  74 SE10      29.70S
6HR MIN TEMP:  52; 6HR MAX TEMP:  58;

EAU CLAIRE WI  CLOUDY    57  32  38 SE8       29.54S
6HR MIN TEMP:  57; 6HR MAX TEMP:  61;

LA CROSSE WI   CLOUDY    59  36  42 SE8       29.56S
6HR MIN TEMP:  58; 6HR MAX TEMP:  65;

$$

  *****  SOME NATIONAL WEATHER *****

CITY           SKY/WX    TMP DP  RH WIND       PRES   REMARKS
LA GUARDIA NY  CLOUDY    51  48  89 NE15      30.10R
6HR MIN TEMP:  50; 6HR MAX TEMP:  53; 6HR PCP:  0.07;

RALEIGH NC     RAIN      59  57  93 NE10      29.63R FOG
6HR MIN TEMP:  59; 6HR MAX TEMP:  60; 6HR PCP:  1.50;

ATLANTA GA     FAIR      58  56  93 NW10      29.76R
6HR MIN TEMP:  56; 6HR MAX TEMP:  60; 6HR PCP: TRACE;

NEW ORLEANS LA FAIR      58  56  93 S3        29.82R
6HR MIN TEMP:  56; 6HR MAX TEMP:  62;

OKLAHOMA CITY  MOCLDY    60  52  74 S18G26    29.40S
6HR MIN TEMP:  60; 6HR MAX TEMP:  63;

ALBUQUERQUE NM MOCLDY    60  20  21 SW10      29.67F
6HR MIN TEMP:  60; 6HR MAX TEMP:  67;

SALT LAKE CITY CLOUDY    42  41  96 SE6       29.74F
6HR MIN TEMP:  41; 6HR MAX TEMP:  44; 6HR PCP:  0.12;

LOS ANGELES CA FAIR      64  43  46 N6        29.84S
6HR MIN TEMP:  59; 6HR M



USA.gov is the U.S. government's official web portal to all federal, state and local government web resources and services.